Regional Weather Roundup
Issued by NWS Lake Charles, LA

Home | Current Version | Previous Version | Text Only | Print | Product List | Glossary On
Versions: 1 2 3 4 5 6 7 8 9 10 11 12 13 14 15 16 17 18 19 20 21 22 23 24 25 26 27 28 29 30 31 32 33 34 35 36 37 38 39 40 41 42 43 44 45 46 47 48 49 50
000
ASUS44 KLCH 272110
RWRLCH
RWRLCH
REGIONAL WEATHER ROUNDUP
NATIONAL WEATHER SERVICE LAKE CHARLES LA
300 PM CST FRI FEB 27 2015

Note: "fair" indicates few or no clouds below 12,000 feet with no
significant weather and/or obstructions to visibility.


ACROSS SOUTHEAST TEXAS

CITY           SKY/WX    TMP DP  RH WIND       PRES   REMARKS
BEAUMONT       SUNNY     52  32  46 E10       30.32F
BEAUMONT CITY    N/A     52  32  46 NE5       30.32F
ORANGE         CLEAR     53  32  46 E6        30.33F
JASPER         PTSUNNY   48  29  48 CALM      30.36F
$$

ACROSS CENTRAL LOUISIANA

CITY           SKY/WX    TMP DP  RH WIND       PRES   REMARKS
LEESVILLE      CLOUDY    48  29  47 VRB7      30.32F
FULLERTON        N/A     51  27  39 VRB5      30.32F
ALEXANDRIA INT SUNNY     46  27  47 N7        30.36F
ESLER FIELD    SUNNY     47  27  45 VRB7      30.38F
DERIDDER         N/A     51  28  39 CALM      30.34F
OAKDALE        CLEAR     49  31  49 NE8       30.34F
OPELOUSAS        N/A     49  33  54 NE12      30.34S
$$

ACROSS SOUTHWEST AND SOUTH CENTRAL LOUISIANA

CITY           SKY/WX    TMP DP  RH WIND       PRES   REMARKS
SULPHUR        CLEAR     52  32  46 NE8       30.33F
LAKE CHARLES   SUNNY     50  32  50 E12       30.33F
CHENNAULT INT  NOT AVBL
CAMERON PHI    CLEAR     50  34  53 NE13G20   30.34F
DEQUINCY       NOT AVBL
JENNINGS         N/A     49  33  54 NE10      30.33F
LAFAYETTE      SUNNY     51  34  52 NE10G16   30.33F
NEW IBERIA     SUNNY     53  34  48 N9        30.32F
ABBEVILLE        N/A     51  35  54 N9G16     30.31F
PATTERSON      SUNNY     54  36  50 NE12      30.31S
SALT POINT       N/A     52  34  50 VRB6      30.29F
$$

SELECTED SITES ACROSS THE REGION

CITY           SKY/WX    TMP DP  RH WIND       PRES   REMARKS
HOUSTON BUSH   CLOUDY    43  32  65 NE6       30.35F
HOUSTON HOBBY  CLOUDY    42  33  70 NE12      30.34S
GALVESTON      CLOUDY    44  38  79 NE17      30.32F
COLLEGE STAT   CLOUDY    42  27  55 NE13      30.34F
CONROE         CLOUDY    47  28  47 NE6       30.34F
HUNTSVILLE     CLOUDY    43  28  55 N7        30.35F
LUFKIN         CLOUDY    45  26  47 N7        30.37F
SHREVEPORT     CLOUDY    34  21  59 N15       30.43F WCI  24
MONROE         PTSUNNY   36  25  64 NE9       30.49S WCI  29
NATCHEZ MS     SUNNY     46  28  49 N14       30.37S
BATON ROUGE    SUNNY     52  33  48 NE8       30.33F
N.O. INTL ARPT MOSUNNY   51  34  52 N12       30.32F
SLIDELL        SUNNY     54  31  41 VRB3      30.31S
$$

MARINE REPORTS

STATION/POSITION TIME  TEMP    WIND        PRES    VSBY  WAVE
                       AIR SEA DIR/SP/G                  HT/PER
                 (UTC) (F)     (DEG/KT/KT) (MB)    (MI)  (FT/S)
BUOY 30 S HIGH I 2100   45 56   60/ 16/ 19 1025.8F         4/ 5
SEA RIM ST PARK  2100   45      90/  6/  8 1027.4F
PORT ARTHUR      2100      53   90/  6/  9 1027.0F
SABINE PASS N    2100   46 51   60/  8/ 12 1026.8R
TEXAS POINT      NOT AVBL
CALCASIEU PASS   2100   48 53   70/  8/ 13   N/A
LK CHARLES BEACH 2100   50                 1027.0F
MARSH ISLAND     NOT AVBL
FRESH WATER LOCK NOT AVBL
AMERADA PASS     2100   52 46   60/  7/ 11 1025.7F
$$



USA.gov is the U.S. government's official web portal to all federal, state and local government web resources and services.